Temperature
29 28 27 27 27 27 28 27 27 25 24 24 23 22 22 21 21 21 20 20 19 18 18 17 16 16 15 15 15 14 14 14 14 14 14 14 15 15 15 16 16 16 17 17
29 28 28 28 28 28 28 27 27 25 24 25 24 23 22 21 21 20 20 19 19 18 18 17 16 16 15 15 14 14 14 14 14 13 14 14 14 14 15 15 16 16 16 16
28 27 28 28 28 27 27 27 26 25 24 24 24 22 21 21 21 20 20 19 18 18 17 17 16 15 15 14 14 13 13 13 13 13 13 14 14 14 14 15 15 15 16 16
27 27 27 27 27 26 26 26 25 25 24 24 24 22 21 21 21 20 20 19 18 17 17 16 16 15 15 14 14 13 13 13 13 13 13 13 13 13 14 14 14 15 15 15
27 27 27 26 25 25 25 25 25 25 24 24 25 23 21 22 20 20 20 19 18 17 17 16 15 15 14 14 13 13 13 13 13 13 13 13 13 13 13 14 14 14 15 15
26 26 26 26 25 25 25 25 25 25 24 23 24 23 21 21 20 20 20 19 18 17 16 16 15 15 14 14 13 13 13 13 12 12 12 12 13 13 13 13 14 14 14 15
26 26 25 25 25 25 26 25 24 24 23 24 24 23 20 20 20 20 19 18 17 17 16 16 15 15 14 14 13 13 13 12 12 12 12 12 12 12 13 13 13 14 14 14
27 25 25 25 25 24 25 25 24 23 24 24 23 22 20 21 20 19 19 18 17 17 16 16 15 15 14 14 13 13 13 13 12 12 12 12 12 12 12 13 13 13 14 14
28 25 24 24 25 25 25 25 25 24 24 24 24 22 20 21 20 20 19 18 18 17 16 16 15 15 14 14 13 13 13 13 12 12 12 12 12 12 12 13 13 13 13 14
28 25 25 24 24 24 24 24 24 24 23 23 24 23 21 20 20 20 19 18 17 17 16 16 15 15 14 14 14 13 13 13 12 12 12 12 12 12 12 12 13 13 13 13
27 26 24 24 24 24 24 25 24 24 24 22 22 21 21 20 20 19 19 18 17 17 16 16 15 15 14 14 14 13 13 13 12 12 12 12 12 12 12 12 12 13 13 13
26 26 26 25 24 24 24 24 24 23 23 23 22 20 21 21 20 19 19 18 17 17 17 16 15 15 14 14 14 13 13 13 12 12 12 12 12 12 12 12 12 12 13 13
25 25 25 24 23 23 23 23 23 23 23 23 22 20 21 21 20 19 19 18 17 17 17 16 16 15 15 14 14 13 13 13 13 12 12 12 12 12 12 12 12 12 12 12
23 25 25 24 23 24 24 23 23 22 22 23 23 21 21 21 20 19 19 18 18 17 17 16 16 15 15 14 14 13 13 13 13 12 12 12 11 12 12 12 12 12 12 12
24 25 26 25 24 24 24 23 23 22 23 22 22 22 22 21 20 20 19 18 18 17 17 16 16 15 15 15 14 14 13 13 13 12 12 11 11 11 11 12 12 12 12 12
25 25 25 24 24 24 24 24 23 23 23 23 22 22 23 21 20 20 19 18 18 17 17 16 16 15 15 15 14 14 13 13 13 12 11 11 11 11 11 11 11 11 11 12
25 25 24 25 25 24 24 24 24 23 24 23 22 22 22 21 20 20 19 19 18 17 17 16 16 15 15 15 14 14 14 13 12 12 11 11 11 11 11 11 11 11 11 12
25 25 24 25 25 23 24 25 25 24 24 24 23 23 22 21 20 20 19 19 18 17 16 16 15 15 15 15 14 14 14 13 12 12 11 11 11 11 11 11 11 11 11 11
25 24 24 25 25 25 24 25 24 23 23 25 24 23 22 21 20 20 19 18 18 17 16 15 15 15 15 14 14 14 14 13 12 12 11 11 11 11 11 11 11 11 11 11
24 24 23 24 23 24 25 25 25 24 23 25 24 23 22 21 20 20 19 18 17 16 16 15 15 15 15 14 14 14 13 12 12 11 11 11 11 11 11 11 11 11 11 11
22 23 22 23 24 26 24 24 24 22 23 24 24 23 22 21 20 20 19 18 17 16 15 15 15 15 14 14 14 14 13 12 12 11 11 11 11 11 11 11 11 11 11 11
25 25 24 24 24 24 23 23 23 24 24 23 23 23 22 21 20 19 18 18 17 16 15 15 15 15 14 14 14 13 13 12 12 12 11 11 11 11 11 11 11 11 11 11
26 26 26 26 25 24 24 24 24 24 24 23 23 22 22 21 20 19 18 17 17 16 16 15 15 15 15 14 14 13 13 12 12 12 12 11 11 11 11 11 11 11 11 11
27 27 26 25 26 25 24 24 24 23 23 23 22 22 21 20 20 19 18 18 17 16 16 15 15 15 15 14 14 13 13 13 12 12 12 12 11 11 11 11 11 11 11 11
26 26 25 25 25 26 25 24 24 23 22 22 22 21 21 20 20 19 18 18 17 17 16 15 15 15 15 15 14 14 13 13 13 13 12 12 12 11 11 11 11 11 11 11
27 26 25 25 26 26 26 25 23 23 22 21 21 21 20 20 19 19 18 18 17 17 16 16 15 15 15 15 14 14 13 13 13 13 12 12 12 12 11 11 11 11 11 11
Wind_Speed
6 6 1 4 5 8 10 8 4 7 5 1 2 5 5 4 4 7 8 9 10 11 10 10 10 10 10 10 11 10 10 10 8 6 7 7 7 7 6 5 6 7 6 6
7 3 3 3 4 7 9 8 4 6 3 3 2 4 6 4 3 5 7 8 10 9 11 10 10 10 10 10 10 10 10 10 9 7 6 6 7 6 7 5 5 6 6 6
2 6 2 3 5 7 7 6 7 3 2 4 5 5 8 7 4 4 6 6 8 8 10 10 9 9 9 9 10 11 10 10 9 9 7 7 6 6 6 6 5 5 6 6
5 3 1 3 3 7 6 6 5 5 5 5 7 3 8 8 5 5 6 6 7 8 9 8 9 10 10 10 10 10 10 10 10 10 8 9 7 7 8 7 6 6 5 5
5 2 2 3 4 6 4 5 6 7 8 9 7 3 7 6 4 6 6 7 8 8 9 9 9 9 10 10 9 9 10 10 10 10 10 9 8 7 7 7 7 6 5 4
7 4 5 4 1 3 4 7 9 9 8 6 0 1 5 4 7 7 7 7 8 8 8 9 9 8 8 8 8 8 9 9 10 10 10 9 10 9 8 8 7 6 4 3
7 6 4 1 4 5 5 7 5 5 6 2 4 2 6 7 6 6 6 7 7 7 7 7 8 8 8 8 8 8 9 9 10 10 10 10 10 9 8 7 6 6 5 4
8 7 4 3 4 5 5 5 5 5 5 1 4 4 7 7 5 3 4 5 5 6 6 7 7 7 7 8 8 9 9 9 10 10 10 9 9 7 6 7 6 6 5 4
3 7 6 3 3 4 6 4 4 5 9 6 4 7 7 5 3 3 5 5 6 7 7 7 7 7 7 7 8 8 8 9 10 10 9 8 9 8 8 8 7 6 5 5
7 4 6 3 3 3 3 6 5 5 5 5 1 5 4 4 4 5 6 6 7 7 7 7 6 7 7 6 7 7 7 8 9 9 9 9 8 8 8 7 8 8 7 6
6 2 6 5 1 2 2 2 3 4 3 3 4 4 5 5 4 4 5 6 6 6 7 6 6 6 7 7 7 7 8 8 9 9 8 9 9 8 9 8 8 8 8 7
2 5 3 6 5 2 3 5 5 4 5 2 3 4 5 4 4 3 4 4 4 5 6 6 6 6 7 7 7 8 8 8 8 8 8 9 9 9 9 9 9 8 8 8
2 4 2 5 5 4 3 1 3 4 4 3 3 4 5 4 3 3 3 3 3 4 5 5 6 5 6 6 7 8 8 8 7 8 8 9 10 10 10 9 9 9 9 9
4 4 4 5 5 1 3 3 3 5 5 4 2 3 4 4 2 2 2 2 3 4 5 5 5 5 5 6 6 7 8 7 7 8 9 9 10 10 9 10 10 9 9 9
4 5 2 1 1 2 3 4 5 6 6 5 4 3 0 4 3 2 2 2 2 3 5 6 6 6 5 5 6 6 7 7 8 8 9 9 9 9 9 9 9 9 9 9
4 5 3 4 4 4 7 8 8 8 7 6 5 3 4 5 3 3 3 1 1 3 4 6 7 6 6 6 6 6 7 8 8 8 8 8 9 9 9 9 9 9 9 9
5 5 4 4 5 5 8 9 11 9 6 6 6 2 6 5 4 3 2 2 1 2 3 5 6 6 7 7 6 6 6 7 8 8 8 8 9 9 9 10 9 9 8 8
3 4 3 5 3 5 2 4 3 6 8 7 6 3 6 4 4 4 2 2 2 2 3 5 5 5 6 7 7 6 6 8 8 8 8 8 8 8 8 9 9 8 7 8
4 3 4 4 5 5 6 5 4 4 7 8 8 7 7 6 5 6 6 4 3 4 4 4 3 4 5 6 6 6 7 8 8 7 7 7 8 8 8 9 8 7 7 7
4 5 5 5 4 4 6 9 5 3 5 7 8 8 9 8 5 5 8 7 5 5 4 2 2 4 5 5 5 5 7 8 7 7 7 7 6 7 7 7 7 6 6 6
5 5 7 7 6 2 9 9 6 3 2 5 6 8 9 9 4 4 10 8 6 5 3 0 1 2 4 5 5 6 7 6 6 5 6 6 6 6 6 6 6 6 6 6
7 5 6 5 5 1 11 8 5 1 4 2 4 6 8 7 7 7 9 8 7 6 4 1 1 1 2 4 4 4 5 4 3 3 3 4 5 6 7 6 6 6 6 6
4 4 2 2 2 6 8 6 5 2 1 4 4 5 7 8 8 8 8 8 7 6 5 3 2 2 1 2 3 3 3 2 2 2 2 3 4 5 6 7 7 7 7 6
6 3 2 4 4 6 9 7 6 4 3 3 5 5 7 8 8 8 8 8 8 6 5 4 4 3 1 3 2 2 2 2 1 1 2 3 4 5 6 6 6 6 6 6
1 3 4 6 6 4 7 9 8 6 6 5 6 6 7 8 8 9 8 7 7 7 6 4 3 3 2 3 3 2 1 2 2 1 2 3 4 3 4 5 5 5 4 4
7 7 6 5 4 3 3 8 9 9 8 8 7 8 8 8 8 8 8 7 7 7 7 6 5 4 3 2 2 3 3 2 3 2 2 2 2 2 1 4 4 6 5 5
Wind_Direction
211 237 296 18 349 318 309 306 306 108 108 80 135 136 122 81 48 18 17 18 18 9 10 23 10 7 1 0 358 352 349 344 342 339 330 323 317 312 303 295 290 283 267 253
212 200 55 6 319 295 292 298 321 110 108 300 213 177 134 114 76 44 20 18 16 5 1 14 10 6 1 0 356 349 349 343 344 335 325 311 308 301 298 293 284 276 267 254
178 73 58 303 301 314 305 339 345 343 166 245 251 213 156 146 116 71 40 30 17 5 1 5 5 3 360 358 356 349 345 344 345 338 329 323 314 309 309 308 297 282 267 255
99 86 301 286 352 341 329 28 333 296 271 245 212 242 149 150 125 72 43 35 23 10 1 9 7 4 360 359 355 348 350 348 347 340 334 327 322 317 310 307 297 292 266 256
112 85 328 332 24 336 345 325 286 270 264 273 238 260 135 141 73 50 40 28 22 11 6 8 7 4 359 357 353 349 353 350 346 342 336 330 327 315 309 311 308 305 293 275
97 76 25 20 347 275 281 266 251 241 252 259 249 337 104 67 41 25 22 21 20 5 7 4 1 1 356 352 352 349 353 348 345 344 342 342 336 327 323 323 322 320 311 295
160 142 115 334 284 215 267 296 281 235 212 134 81 84 89 78 54 27 12 16 11 3 9 360 357 357 354 352 353 349 354 348 347 347 345 344 341 335 332 330 326 329 324 315
193 150 118 50 351 332 321 311 325 324 335 47 151 91 103 94 86 38 22 33 10 8 8 1 355 354 352 354 351 350 352 348 349 346 343 345 346 343 339 338 336 333 325 311
320 107 108 75 359 324 317 333 351 302 289 290 128 115 128 125 102 44 19 25 22 9 1 1 357 359 358 353 350 352 352 348 349 346 343 352 355 355 351 348 345 339 339 336
326 109 133 132 234 204 311 328 307 294 335 326 61 105 103 89 42 21 19 27 24 8 359 6 4 4 357 353 344 352 353 354 350 354 359 2 358 355 350 351 352 350 352 355
304 254 148 178 235 13 297 270 311 294 280 321 338 73 74 71 56 24 21 31 24 5 360 6 10 6 360 358 353 357 360 2 359 359 0 2 360 0 360 2 5 4 3 9
313 299 181 134 98 63 329 335 332 322 343 324 297 99 96 95 84 58 32 29 18 5 3 11 13 10 3 356 357 2 3 2 2 3 4 4 4 8 7 6 7 10 11 14
340 279 223 157 158 177 213 232 308 307 285 279 314 115 137 122 104 82 54 34 24 10 9 17 10 11 4 3 8 7 1 360 8 14 12 11 10 10 7 5 5 14 15 15
331 272 307 2 30 115 192 192 243 280 291 318 7 98 157 141 126 117 101 55 37 17 12 12 9 13 5 17 15 4 356 360 14 24 20 14 10 9 7 7 11 15 16 19
253 278 297 50 6 307 268 237 229 253 284 308 1 1 58 120 131 128 123 82 22 19 13 11 14 15 4 20 14 6 4 11 21 30 24 14 11 11 10 12 18 19 18 21
236 282 276 238 210 241 258 246 236 243 254 265 280 278 114 110 133 153 158 128 29 23 16 15 10 13 4 17 17 14 18 21 29 34 27 15 16 16 10 13 21 22 20 20
218 259 285 268 170 247 257 231 221 226 227 237 255 233 138 154 174 184 168 137 101 40 26 26 10 10 3 13 20 16 25 32 33 30 28 20 19 18 13 15 18 20 22 23
263 268 273 278 222 254 114 99 182 226 236 228 227 169 154 172 163 166 167 155 131 92 49 39 9 0 1 15 16 10 35 42 37 27 25 24 22 20 15 15 16 18 23 24
307 283 275 274 288 273 150 159 173 215 252 229 215 191 170 168 177 194 178 157 117 92 75 50 352 345 14 20 8 8 35 45 38 26 23 24 22 19 18 16 13 16 23 25
270 276 271 285 283 300 107 127 137 214 261 205 192 185 174 176 212 203 160 147 132 113 97 56 332 1 20 14 2 19 38 42 34 23 23 21 19 22 23 16 13 14 20 25
198 217 236 264 272 287 119 125 140 216 24 109 167 175 177 189 194 125 138 140 135 130 128 136 330 23 15 8 9 30 43 41 35 26 25 20 14 21 30 20 16 17 20 27
208 215 215 228 253 220 135 151 196 235 111 145 183 178 175 168 146 130 133 137 142 148 154 180 304 358 28 23 11 44 51 40 34 27 27 32 29 25 28 22 19 20 20 29
220 271 314 300 25 120 172 197 226 296 217 169 191 183 169 166 163 155 156 157 163 168 166 176 233 256 187 90 31 38 53 31 15 18 39 47 47 53 41 27 29 25 19 25
187 212 287 293 269 195 200 219 218 216 236 193 187 181 175 176 173 169 175 174 171 171 170 178 222 250 199 127 109 66 51 354 336 6 49 72 55 55 58 43 35 37 21 17
353 154 235 256 262 239 201 210 215 201 210 206 193 185 185 183 184 179 185 187 176 167 168 180 218 245 235 169 158 132 87 319 315 350 67 88 89 71 78 80 48 47 57 39
258 221 220 249 268 238 228 193 201 201 202 204 200 191 189 190 190 187 189 184 177 172 169 183 212 235 243 192 164 149 142 274 302 28 49 70 105 102 104 127 109 51 64 64
Height
1524 1525 1529 1529 1529 1530 1528 1530 1534 1538 1539 1541 1545 1550 1554 1557 1558 1559 1558 1558 1558 1557 1556 1554 1552 1549 1546 1543 1539 1536 1532 1529 1525 1522 1519 1516 1513 1511 1510 1509 1508 1508 1509 1510
1523 1527 1527 1528 1528 1529 1528 1531 1532 1537 1539 1541 1544 1548 1552 1556 1558 1560 1559 1559 1559 1558 1556 1554 1551 1549 1545 1542 1538 1535 1531 1527 1524 1520 1517 1514 1511 1508 1506 1505 1504 1504 1504 1504
1525 1530 1529 1529 1529 1530 1529 1533 1535 1538 1539 1540 1544 1549 1551 1554 1557 1558 1559 1559 1559 1558 1556 1554 1551 1548 1545 1541 1537 1533 1529 1526 1522 1518 1514 1511 1508 1505 1503 1501 1499 1499 1499 1499
1527 1530 1530 1530 1531 1536 1535 1535 1536 1537 1543 1543 1542 1554 1552 1552 1554 1556 1558 1559 1559 1558 1556 1553 1551 1548 1544 1541 1537 1533 1529 1524 1520 1516 1512 1509 1506 1502 1500 1498 1496 1495 1494 1495
1529 1530 1531 1533 1536 1538 1538 1536 1536 1536 1539 1541 1536 1546 1555 1549 1554 1556 1557 1558 1558 1557 1555 1553 1550 1547 1544 1540 1536 1532 1528 1523 1519 1515 1511 1507 1504 1500 1497 1495 1493 1491 1490 1491
1532 1533 1535 1536 1537 1537 1536 1535 1533 1533 1537 1547 1537 1545 1558 1553 1555 1556 1557 1558 1558 1557 1555 1553 1550 1547 1543 1540 1536 1531 1527 1523 1518 1514 1510 1506 1502 1498 1495 1493 1490 1489 1488 1487
1533 1533 1536 1537 1536 1534 1534 1538 1544 1544 1547 1545 1537 1543 1558 1554 1554 1556 1557 1558 1558 1556 1554 1552 1549 1546 1543 1539 1535 1531 1527 1522 1518 1513 1509 1505 1501 1497 1494 1491 1489 1487 1486 1485
1529 1538 1536 1537 1539 1539 1535 1538 1550 1559 1549 1543 1539 1547 1555 1552 1555 1556 1556 1557 1557 1555 1554 1552 1549 1546 1542 1539 1535 1531 1527 1522 1518 1513 1509 1504 1500 1496 1493 1490 1488 1486 1484 1483
1522 1539 1537 1539 1539 1539 1538 1535 1535 1545 1539 1541 1539 1546 1552 1551 1553 1554 1555 1555 1555 1555 1553 1551 1548 1545 1542 1539 1535 1531 1527 1522 1518 1513 1509 1505 1501 1497 1493 1490 1488 1486 1484 1482
1521 1534 1537 1538 1540 1539 1539 1539 1539 1543 1552 1555 1543 1545 1553 1552 1552 1553 1554 1555 1555 1555 1553 1550 1548 1545 1542 1539 1535 1531 1527 1523 1518 1514 1510 1506 1502 1498 1494 1491 1488 1486 1484 1482
1525 1530 1538 1538 1539 1539 1539 1538 1539 1540 1542 1556 1559 1559 1547 1550 1552 1553 1554 1555 1555 1554 1552 1550 1548 1545 1542 1539 1535 1532 1528 1523 1519 1515 1511 1507 1503 1499 1495 1492 1490 1487 1484 1482
1528 1529 1532 1535 1537 1539 1540 1541 1542 1550 1547 1544 1552 1561 1547 1549 1551 1553 1554 1554 1554 1553 1552 1550 1548 1545 1542 1539 1536 1532 1528 1524 1520 1516 1512 1508 1505 1501 1497 1494 1491 1488 1486 1483
1530 1534 1538 1544 1547 1543 1541 1541 1542 1544 1545 1545 1552 1558 1547 1548 1550 1552 1553 1554 1553 1553 1551 1550 1548 1545 1542 1539 1536 1533 1529 1525 1521 1517 1513 1510 1506 1502 1499 1496 1493 1490 1488 1486
1536 1533 1537 1547 1544 1538 1540 1542 1543 1545 1547 1545 1544 1547 1546 1546 1548 1550 1552 1552 1552 1552 1551 1549 1547 1545 1542 1540 1537 1533 1530 1526 1523 1519 1515 1511 1508 1504 1501 1498 1495 1492 1490 1488
1535 1533 1530 1533 1535 1536 1537 1539 1541 1544 1543 1546 1543 1543 1542 1543 1547 1549 1550 1551 1551 1551 1550 1549 1547 1545 1543 1540 1537 1534 1531 1528 1524 1520 1517 1513 1510 1507 1504 1500 1498 1495 1492 1490
1533 1532 1531 1534 1533 1535 1537 1536 1537 1539 1539 1540 1541 1541 1538 1542 1545 1547 1549 1550 1550 1550 1550 1549 1548 1546 1543 1541 1538 1535 1532 1529 1526 1522 1519 1515 1512 1509 1506 1503 1500 1498 1495 1493
1530 1531 1535 1534 1530 1535 1537 1528 1531 1533 1533 1536 1540 1538 1537 1541 1544 1546 1547 1548 1549 1550 1549 1549 1548 1546 1544 1542 1539 1536 1533 1530 1527 1524 1521 1518 1515 1512 1509 1506 1504 1501 1499 1497
1528 1530 1533 1533 1535 1545 1531 1520 1523 1527 1528 1528 1531 1533 1536 1539 1542 1544 1546 1547 1548 1549 1549 1548 1547 1546 1544 1542 1540 1537 1534 1531 1528 1525 1523 1520 1517 1514 1512 1509 1507 1504 1502 1500
1530 1532 1535 1533 1535 1528 1525 1521 1523 1528 1528 1524 1527 1530 1534 1538 1541 1542 1544 1545 1547 1547 1548 1548 1547 1546 1544 1542 1540 1538 1536 1533 1530 1527 1525 1522 1520 1517 1514 1512 1510 1508 1506 1503
1533 1532 1537 1534 1541 1537 1524 1519 1521 1527 1529 1520 1523 1527 1532 1536 1540 1540 1540 1543 1545 1546 1547 1547 1546 1546 1544 1542 1541 1539 1536 1534 1531 1529 1527 1525 1522 1520 1517 1515 1513 1511 1509 1507
1536 1535 1539 1540 1536 1522 1519 1520 1524 1535 1528 1520 1522 1525 1529 1533 1536 1537 1538 1541 1543 1545 1545 1546 1545 1545 1544 1542 1541 1539 1537 1535 1533 1531 1529 1527 1525 1523 1520 1518 1516 1514 1512 1510
1526 1527 1529 1529 1533 1528 1520 1522 1524 1523 1520 1521 1522 1524 1527 1531 1534 1536 1538 1540 1542 1543 1544 1544 1544 1544 1543 1542 1541 1539 1537 1536 1534 1532 1530 1529 1527 1525 1523 1521 1519 1517 1515 1513
1517 1516 1516 1518 1521 1517 1517 1518 1519 1519 1519 1520 1522 1524 1526 1529 1532 1534 1537 1539 1540 1542 1543 1543 1543 1543 1543 1542 1541 1539 1538 1536 1535 1534 1532 1531 1529 1527 1525 1523 1521 1519 1517 1516
1509 1511 1514 1516 1512 1513 1514 1515 1516 1517 1518 1519 1521 1523 1524 1527 1530 1532 1535 1537 1538 1540 1541 1541 1542 1542 1542 1541 1540 1539 1538 1537 1536 1535 1533 1532 1531 1529 1527 1525 1523 1522 1520 1519
1508 1511 1513 1513 1511 1510 1510 1511 1513 1515 1516 1518 1519 1521 1523 1525 1527 1530 1532 1534 1536 1537 1538 1539 1540 1540 1541 1540 1539 1538 1537 1536 1536 1535 1534 1533 1532 1530 1529 1528 1526 1524 1523 1522
1507 1508 1512 1512 1506 1507 1507 1507 1509 1511 1513 1515 1516 1518 1520 1522 1525 1527 1529 1531 1533 1534 1535 1536 1537 1538 1539 1539 1538 1537 1536 1536 1536 1535 1534 1533 1533 1531 1531 1529 1528 1527 1526 1524